DW3310 Weather Reports


Display with metric or nautical units.
time (UTC)temp
F
wind
direction
speed
MPH
gust
MPH
rain 1hr
in
rain 24hr
in
rain mn
in
humidity
%
barometer
mb
20260905133010 65 58 1.0 8.0 0.00 0.00 0.00 41 1010.4
20260905131510 64 100 1.0 5.0 0.00 0.00 0.00 43 1010.3
20260905130002 64 94 2.0 6.0 0.00 0.00 0.00 43 1010.3
20260905124557 64 108 2.0 7.0 0.00 0.00 0.00 33 1010.2
20260905123054 63 82 2.0 5.0 0.00 0.00 0.00 8 1010.1
20260905121552 63 26 0.0 5.0 0.00 0.00 0.00 6 1010.1
20260905120045 63 327 2.0 4.0 0.00 0.00 0.00 21 1010.2
20260905114540 62 295 0.0 5.0 0.00 0.00 0.00 6 1009.9
20260905113036 61 289 0.0 3.0 0.00 0.00 0.00 1 1009.9
20260905111551 61 337 1.0 5.0 0.00 0.00 0.00 1 1009.8
20260905110028 61 336 2.0 7.0 0.00 0.00 0.00 1 1009.5
20260905104522 61 319 2.0 7.0 0.00 0.00 0.00 1 1009.4
20260905103024 61 312 2.0 8.0 0.00 0.00 0.00 1 1009.3
20260905101516 60 329 2.0 6.0 0.00 0.00 0.00 1 1009.3
20260905100015 60 213 2.0 6.0 0.00 0.00 0.00 1 1009.2
20260905094510 60 273 3.0 7.0 0.00 0.00 0.00 1 1009.1
20260905093001 61 254 2.0 9.0 0.00 0.00 0.00 1 1008.9
20260905091557 61 276 2.0 9.0 0.00 0.00 0.00 1 1008.9
20260905090053 61 294 4.0 8.0 0.00 0.00 0.00 1 1008.8
20260905084553 61 297 5.0 10.0 0.00 0.00 0.00 1 1009.0
20260905083045 61 296 3.0 10.0 0.00 0.00 0.00 2 1008.9
20260905081540 62 259 4.0 9.0 0.00 0.00 0.00 6 1008.8
20260905080035 62 306 5.0 14.0 0.00 0.00 0.00 8 1008.8
20260905074531 61 305 5.0 12.0 0.00 0.00 0.00 4 1008.7
20260905073026 61 311 7.0 11.0 0.00 0.00 0.00 3 1008.8
20260905071536 62 309 5.0 11.0 0.00 0.00 0.00 11 1009.0
20260905070016 62 275 5.0 11.0 0.00 0.00 0.00 20 1009.1
20260905064514 62 316 6.0 11.0 0.00 0.00 0.00 27 1009.1
20260905063011 63 301 5.0 12.0 0.00 0.00 0.00 35 1009.1
20260905061511 63 325 3.0 9.0 0.00 0.00 0.00 36 1009.0
20260905060010 63 326 3.0 8.0 0.00 0.00 0.00 36 1009.2
20260905054523 63 27 2.0 11.0 0.00 0.00 0.00 35 1009.2
20260905053004 63 314 6.0 12.0 0.00 0.00 0.00 31 1009.1
20260905051503 63 289 6.0 11.0 0.00 0.00 0.00 34 1009.3
20260905050100 63 292 2.0 12.0 0.00 0.00 0.00 37 1009.4
20260905044558 63 301 5.0 10.0 0.00 0.00 0.00 40 1009.5
20260905043055 64 315 3.0 5.0 0.00 0.00 0.00 42 1009.5
20260905041552 64 341 3.0 8.0 0.00 0.00 0.00 43 1009.3
20260905040049 64 335 3.0 6.0 0.00 0.00 0.00 47 1009.3
20260905034547 64 327 6.0 11.0 0.00 0.00 0.00 49 1009.4
20260905033054 65 360 4.0 10.0 0.00 0.00 0.00 51 1009.5
20260905031543 65 284 6.0 12.0 0.00 0.00 0.00 53 1009.6
20260905030038 65 310 6.0 12.0 0.00 0.00 0.00 53 1009.7
20260905024533 65 309 6.0 12.0 0.00 0.00 0.00 54 1009.8
20260905023027 66 281 5.0 12.0 0.00 0.00 0.00 57 1009.7
20260905021522 66 338 6.0 11.0 0.00 0.00 0.00 59 1009.7
20260905020019 66 355 8.0 15.0 0.00 0.00 0.00 60 1009.8
20260905014513 66 318 4.0 11.0 0.00 0.00 0.00 60 1010.0
20260905013008 66 335 4.0 11.0 0.00 0.00 0.00 60 1010.1
20260905011504 66 344 4.0 12.0 0.00 0.00 0.00 61 1010.0
20260905010100 67 316 5.0 12.0 0.00 0.00 0.00 61 1010.1
20260905004555 67 327 6.0 15.0 0.00 0.00 0.00 61 1010.2
20260905003050 67 355 4.0 13.0 0.00 0.00 0.00 61 1010.1
20260905001546 67 306 6.0 13.0 0.00 0.00 0.00 61 1010.2
20260905000041 68 292 4.0 9.0 0.00 0.00 0.00 62 1010.0
20260904234540 68 321 3.0 9.0 0.00 0.00 0.00 63 1009.9
20260904233040 68 318 5.0 13.0 0.00 0.00 0.00 63 1009.7
20260904231535 69 344 4.0 11.0 0.00 0.00 0.00 63 1009.7
20260904230028 70 360 5.0 13.0 0.00 0.00 0.00 63 1009.7
20260904224527 70 5 3.0 13.0 0.00 0.00 0.00 63 1009.7
20260904223029 70 12 2.0 10.0 0.00 0.00 0.00 62 1009.6
20260904221520 71 46 7.0 13.0 0.00 0.00 0.00 62 1009.5
20260904220018 71 360 4.0 13.0 0.00 0.00 0.00 62 1009.6
20260904214512 71 5 7.0 14.0 0.00 0.00 0.00 62 1009.7
20260904213007 72 46 6.0 13.0 0.00 0.00 0.00 62 1009.7
20260904211505 73 302 6.0 18.0 0.00 0.00 0.00 60 1009.6
20260904210104 72 307 11.0 18.0 0.00 0.00 0.00 60 1009.4
20260904204554 73 347 7.0 16.0 0.00 0.00 0.00 60 1009.4
20260904203048 73 317 7.0 18.0 0.00 0.00 0.00 60 1009.6
20260904201557 76 5 9.0 20.0 0.00 0.00 0.00 56 1009.4
20260904200039 75 333 8.0 17.0 0.00 0.00 0.00 57 1009.5
20260904194543 73 344 9.0 19.0 0.00 0.00 0.00 59 1009.5
20260904193033 73 286 7.0 16.0 0.00 0.00 0.00 58 1009.6
20260904191531 73 310 9.0 20.0 0.00 0.00 0.00 57 1009.5
20260904190030 74 323 8.0 21.0 0.00 0.00 0.00 56 1009.6
20260904184523 75 289 12.0 23.0 0.00 0.00 0.00 56 1009.5
20260904183017 75 355 7.0 17.0 0.00 0.00 0.00 57 1009.9
20260904181515 74 294 9.0 17.0 0.00 0.00 0.00 57 1009.5
20260904180009 73 286 8.0 19.0 0.00 0.00 0.00 61 1009.7
20260904174505 73 269 7.0 17.0 0.00 0.00 0.00 59 1009.8
20260904173001 75 342 10.0 16.0 0.00 0.00 0.00 58 1010.0
20260904171609 74 275 8.0 17.0 0.00 0.00 0.00 61 1009.8
20260904170052 74 279 9.0 19.0 0.00 0.00 0.00 60 1010.0
20260904164554 73 316 10.0 17.0 0.00 0.00 0.00 62 1010.2
20260904163042 72 289 9.0 20.0 0.00 0.00 0.00 63 1010.3
20260904161540 73 333 9.0 20.0 0.00 0.00 0.00 63 1010.3
20260904160035 73 360 8.0 17.0 0.00 0.00 0.00 62 1010.3
20260904154529 72 326 6.0 15.0 0.00 0.00 0.00 61 1010.5
20260904153028 72 302 10.0 18.0 0.00 0.00 0.00 60 1010.6
20260904151520 72 320 7.0 13.0 0.00 0.00 0.00 57 1010.6
20260904150027 72 329 8.0 15.0 0.00 0.00 0.00 57 1010.6
20260904144511 71 329 7.0 13.0 0.00 0.00 0.00 50 1010.8
20260904143006 70 327 5.0 11.0 0.00 0.00 0.00 39 1010.9
20260904141502 70 315 3.0 8.0 0.00 0.00 0.00 35 1011.0
20260904140105 69 315 3.0 10.0 0.00 0.00 0.00 29 1011.2
20260904134558 68 267 5.0 11.0 0.00 0.00 0.00 25 1011.2